This demonstration page uses our WeatherBlox Daily Observations layout. Learn more.

Left ArrowRight Arrow

38.20091, -84.87328

Hourly Observations for July 11, 2017

Temp ( °F °C ) Dew Point ( °F °C ) Humidity (%) Winds ( mph kmh ) Pressure ( in mb ) Visibility ( mi km ) Precip ( " mm )
12:53 am 00:53 Mostly Cloudy 77 25 67 19.4 71 71 SSW 7 11 29.97 1015 10 16 0.00 0.00
1:53 am 01:53 Mostly Clear 77 25 66 18.9 69 69 SSW 10 17 29.97 1015 10 16 0.00 0.00
2:53 am 02:53 Clear 76 24.4 66 18.9 72 72 SW 9 15 29.94 1014 10 16 0.00 0.00
3:53 am 03:53 Clear 74 23.3 66 18.9 76 76 SSW 7 11 29.96 1014 10 16 0.00 0.00
4:53 am 04:53 Clear 73 22.8 66 18.9 79 79 S 3 6 29.96 1015 10 16 0.00 0.00
5:53 am 05:53 Clear 73 22.8 66 18.9 79 79 SSW 6 9 29.95 1014 10 16 0.00 0.00
6:53 am 06:53 Sunny 73 22.8 66 18.9 79 79 SW 6 9 29.97 1015 10 16 0.00 0.00
7:53 am 07:53 Sunny 74 23.3 66 18.9 76 76 SW 9 15 29.99 1016 10 16 0.00 0.00
8:53 am 08:53 Sunny 76 24.4 67 19.4 74 74 SW 12 19 29.98 1015 10 16 0.00 0.00
9:53 am 09:53 Sunny 79 26.1 68 20 69 69 SW 10 17 30.00 1016 10 16 0.00 0.00
10:53 am 10:53 Sunny 78 25.6 69 20.6 74 74 WSW 6 9 30.02 1017 10 16 0.00 0.00
11:53 am 11:53 Partly Cloudy 78 25.6 70 21.1 76 76 W 3 6 30.05 1018 10 16 0.00 0.00
12:51 pm 12:51 Cloudy 79 26 70 21 74 74 SW 7 11 30.03 1017 10 16 0.00 0.00
12:53 pm 12:53 Cloudy 80 26.7 71 21.7 74 74 SW 7 11 30.04 1017 10 16 0.00 0.00
1:53 pm 13:53 Cloudy 80 26.7 71 21.7 74 74 WSW 3 6 30.06 1018 10 16 0.00 0.00
2:21 pm 14:21 Cloudy 80 26.7 71 21.7 74 74 WSW 7 11 30.06 1018 10 16 0.00 0.00
2:53 pm 14:53 Mostly Cloudy 81 27.2 72 22.2 74 74 VRB 3 6 30.06 1018 10 16 0.00 0.00
3:53 pm 15:53 Sunny 83 28.3 72 22.2 70 70 WNW 5 7 30.05 1018 10 16 0.00 0.00
4:53 pm 16:53 Sunny 83 28.3 72 22.2 70 70 WSW 7 11 30.03 1017 10 16 0.00 0.00
5:53 pm 17:53 Mostly Sunny 84 28.9 73 22.8 70 70 SW 7 11 30.00 1016 10 16 0.00 0.00
6:53 pm 18:53 Sunny 84 28.9 73 22.8 70 70 SSW 9 15 29.96 1014 10 16 0.00 0.00
7:53 pm 19:53 Sunny 83 28.3 72 22.2 70 70 SSW 8 13 29.97 1015 10 16 0.00 0.00
8:53 pm 20:53 Sunny 81 27.2 71 21.7 72 72 SSW 7 11 29.98 1015 10 16 0.00 0.00
9:53 pm 21:53 Clear 78 25.6 71 21.7 79 79 WSW 3 6 30.00 1016 10 16 0.00 0.00
10:53 pm 22:53 Clear 76 24.4 71 21.7 85 85 Calm 30.03 1017 10 16 0.00 0.00
11:53 pm 23:53 Clear 76 24.4 71 21.7 85 85 SW 5 7 30.03 1017 10 16 0.00 0.00

Powered by AerisWeather